DW3478 Weather Reports


time (UTC)temp
C
wind
direction
speed
KPH
gust
KPH
rain 1hr
cm
rain 24hr
cm
rain mn
cm
humidity
%
barometer
mb
20180818021809 19 63 0.0 0.0 0.00 0.00 0.00 82 1017.2
20180818014809 20 63 4.8 4.8 0.00 0.00 0.00 81 1017.4
20180818013809 19 63 0.0 4.8 0.00 0.00 0.00 81 1017.4
20180818012809 19 63 0.0 4.8 0.00 0.00 0.00 81 1017.6
20180818011809 19 63 3.2 8.0 0.00 0.00 0.00 82 1017.6
20180818010809 19 63 3.2 4.8 0.00 0.00 0.00 83 1017.7
20180818005809 20 63 0.0 3.2 0.00 0.00 0.00 82 1017.9
20180818004809 20 63 0.0 4.8 0.00 0.00 0.00 83 1017.9
20180818003809 20 63 0.0 3.2 0.00 0.00 0.00 83 1018.0
20180818002809 20 63 3.2 8.0 0.00 0.00 0.00 83 1018.0
20180818001809 20 63 4.8 14.5 0.00 0.00 0.00 83 1018.0
20180818000809 20 63 3.2 8.0 0.00 0.00 0.00 85 1018.1
20180817235810 20 63 4.8 4.8 0.00 0.00 0.00 86 1018.1
20180817234809 20 63 3.2 8.0 0.00 0.00 0.00 86 1018.3
20180817233810 20 63 3.2 9.7 0.00 0.00 0.00 86 1018.3
20180817232810 20 63 4.8 9.7 0.00 0.00 0.00 86 1018.4
20180817231810 20 63 8.0 12.9 0.00 0.00 0.00 85 1018.6
20180817222814 20 53 3.2 8.0 0.00 0.00 0.00 85 1018.7
20180817221816 20 53 4.8 8.0 0.00 0.00 0.00 85 1018.8
20180817215813 20 53 3.2 4.8 0.00 0.00 0.00 85 1018.6
20180817214813 20 53 3.2 8.0 0.00 0.00 0.00 85 1018.6
20180817213814 20 53 3.2 8.0 0.00 0.00 0.00 83 1018.5
20180817212813 20 53 4.8 9.7 0.00 0.00 0.00 83 1018.4
20180817211813 21 52 3.2 8.0 0.00 0.00 0.00 80 1018.3
20180817210812 21 52 4.8 19.3 0.00 0.00 0.00 72 1018.3
20180817203814 20 151 3.2 4.8 0.00 0.00 0.00 80 1018.4
20180817201813 20 151 0.0 4.8 0.00 0.00 0.00 81 1018.4
20180817200815 21 151 3.2 4.8 0.00 0.00 0.00 84 1018.4
20180817193815 21 151 1.6 4.8 0.00 0.00 0.00 84 1018.3
20180817191815 21 151 3.2 9.7 0.00 0.00 0.00 84 1018.2
20180817190812 21 151 4.8 9.7 0.00 0.00 0.00 84 1018.1
20180817183815 21 151 9.7 19.3 0.00 0.00 0.00 82 1018.0
20180817182813 21 152 6.4 14.5 0.00 0.00 0.00 82 1017.9
20180817181812 21 152 6.4 12.9 0.00 0.00 0.00 82 1018.0
20180817175810 21 150 9.7 19.3 0.00 0.00 0.00 81 1018.0
20180817174809 22 152 9.7 16.1 0.00 0.00 0.00 80 1018.0
20180817173809 22 152 6.4 14.5 0.00 0.00 0.00 80 1018.1
20180817172830 22 152 6.4 11.3 0.00 0.00 0.00 81 1018.2
20180817171809 22 152 4.8 16.1 0.00 0.00 0.00 81 1018.3
20180817170809 22 151 12.9 22.5 0.00 0.00 0.00 81 1018.3
20180817165809 22 147 12.9 19.3 0.00 0.00 0.00 81 1018.2
20180817160809 22 180 8.0 16.1 0.00 0.00 0.00 82 1018.6
20180817154810 22 186 6.4 14.5 0.00 0.00 0.00 82 1018.7
20180817152809 22 205 8.0 14.5 0.00 0.00 0.00 81 1018.8
20180817151809 22 211 6.4 14.5 0.00 0.00 0.00 82 1018.7
20180817150810 22 212 11.3 19.3 0.00 0.00 0.00 81 1018.8
20180817145809 22 213 8.0 20.9 0.00 0.00 0.00 81 1018.9
20180817142809 22 204 6.4 19.3 0.00 0.00 0.00 80 1019.4
20180817140809 21 198 6.4 16.1 0.00 0.00 0.00 83 1019.8
20180817132809 21 198 8.0 14.5 0.00 0.00 0.00 83 1020.0
20180817131809 21 198 9.7 16.1 0.00 0.00 0.00 83 1020.1
20180817130809 21 195 8.0 14.5 0.00 0.00 0.00 83 1020.3
20180817125809 21 194 8.0 16.1 0.00 0.00 0.00 83 1020.2
20180817123810 22 200 8.0 16.1 0.00 0.00 0.00 82 1020.5
20180817122809 22 200 9.7 12.9 0.00 0.00 0.00 82 1020.5
20180817120809 21 205 4.8 14.5 0.00 0.00 0.00 84 1020.6
20180817114810 22 205 3.2 9.7 0.00 0.00 0.00 79 1020.6
20180817113809 21 205 6.4 11.3 0.00 0.00 0.00 82 1020.5
20180817112809 21 209 4.8 11.3 0.00 0.00 0.00 83 1020.7
20180817110809 21 210 6.4 9.7 0.00 0.00 0.00 83 1020.7
20180817105810 21 210 8.0 11.3 0.00 0.00 0.00 82 1020.6
20180817103809 21 271 4.8 8.0 0.00 0.00 0.00 84 1020.6
20180817101809 21 271 3.2 8.0 0.00 0.00 0.00 84 1020.5
20180817095809 20 271 3.2 8.0 0.00 0.00 0.00 86 1020.5
20180817094809 20 271 4.8 8.0 0.00 0.00 0.00 85 1020.4
20180817093809 20 271 4.8 8.0 0.00 0.00 0.00 85 1020.4
20180817091809 21 280 8.0 9.7 0.00 0.00 0.00 83 1020.4
20180817090809 21 280 4.8 8.0 0.00 0.00 0.00 82 1020.4
20180817085809 21 280 0.0 4.8 0.00 0.00 0.00 81 1020.3
20180817084809 21 280 0.0 4.8 0.00 0.00 0.00 83 1020.4
20180817083809 21 280 0.0 0.0 0.00 0.00 0.00 83 1020.3
20180817082809 20 280 0.0 4.8 0.00 0.00 0.00 84 1020.3
20180817081809 20 280 0.0 4.8 0.00 0.00 0.00 83 1020.3
20180817075809 20 280 0.0 0.0 0.00 0.00 0.00 84 1020.3
20180817074809 20 280 0.0 0.0 0.00 0.00 0.00 84 1020.2
20180817073809 20 280 0.0 0.0 0.00 0.00 0.00 84 1020.3
20180817065810 19 280 0.0 0.0 0.00 0.00 0.00 85 1020.0
20180817064809 19 280 1.6 4.8 0.00 0.00 0.00 85 1020.0
20180817063809 19 280 1.6 4.8 0.00 0.00 0.00 85 1019.9
20180817062810 19 280 1.6 4.8 0.00 0.00 0.00 84 1019.8
20180817061809 19 280 0.0 4.8 0.00 0.00 0.00 85 1019.7
20180817060809 19 280 1.6 4.8 0.00 0.00 0.00 85 1019.6
20180817055809 19 280 1.6 4.8 0.00 0.00 0.00 85 1019.6
20180817054809 19 280 0.0 0.0 0.00 0.00 0.00 85 1019.5
20180817053809 19 280 0.0 0.0 0.00 0.00 0.00 85 1019.4
20180817051809 19 280 0.0 0.0 0.00 0.00 0.00 85 1019.4
20180817050809 20 280 0.0 0.0 0.00 0.00 0.00 85 1019.2
20180817045810 20 280 0.0 4.8 0.00 0.00 0.00 86 1019.3
20180817044809 20 280 0.0 1.6 0.00 0.00 0.00 86 1019.3
20180817042809 20 280 0.0 4.8 0.00 0.00 0.00 85 1019.5
20180817040809 20 280 0.0 0.0 0.00 0.00 0.00 85 1019.5
20180817035809 20 280 0.0 3.2 0.00 0.00 0.00 84 1019.6
20180817033809 20 280 1.6 4.8 0.00 0.00 0.00 82 1019.8
20180817032809 20 280 1.6 4.8 0.00 0.00 0.00 79 1019.7
20180817030809 20 280 1.6 4.8 0.00 0.00 0.00 74 1019.9
20180817025809 20 280 1.6 16.1 0.00 0.00 0.00 76 1020.0
20180817024809 21 353 8.0 29.0 0.00 0.00 0.00 70 1019.9